Date String (YYYY-MM-DD hh:mm:ss) UTC,Instrument flags,Ambient pressure (hPa),Sample flow (lpm),Bypass flow (lpm),Sample temperature (°C),Ambient temperature (°C),ASC tube jacket temperature (°C),LED temperature (°C),Box temperature (°C),Sample RH (%),Span deviation,Mass concentration (μg/m³),Mass concentration (μg/m³),Mass concentration (μg/m³)
DateTimeUTC,F1_M11,P_M11,Q1_M11,Q2_M11,T1_M11,T2_M11,T3_M11,T4_M11,T5_M11,U1_M11,ZSPAN_M11,X0_M11,X2_M11,X1_M11
2023-01-25 03:00:00,,0824.6,5.02,0.00,22.2,20.6,00.0,31.0,23.9,10.9,-002.4,0020.04,0012.90,0012.10
2023-01-25 03:01:00,,0824.6,5.01,0.00,22.2,20.6,00.0,31.0,23.9,10.9,-002.7,0020.00,0012.89,0012.10
2023-01-25 03:02:00,,0824.7,5.00,0.00,22.1,20.5,00.0,31.0,23.8,10.8,-002.8,0019.92,0012.86,0012.09
2023-01-25 03:03:00,,0824.7,5.00,0.00,22.1,20.5,00.0,31.0,23.8,10.7,-002.6,0020.19,0012.87,0012.09
2023-01-25 03:04:00,,0824.7,5.00,0.00,22.1,20.4,00.0,31.0,23.8,10.7,-002.6,0019.43,0012.84,0012.07
2023-01-25 03:05:00,,0824.7,5.03,0.00,22.1,20.7,00.0,30.9,23.8,10.7,-002.4,0019.25,0012.81,0012.05
2023-01-25 03:06:00,,0824.5,5.02,0.00,22.2,21.6,00.0,30.9,24.0,10.8,-002.1,0019.23,0012.78,0012.03
2023-01-25 03:07:00,,0824.6,5.00,0.00,22.3,22.5,00.0,31.0,24.2,10.7,-001.8,0018.78,0012.75,0012.02
2023-01-25 03:08:00,,0824.7,5.00,0.00,22.3,22.6,00.0,31.0,24.3,10.7,-001.5,0018.58,0012.73,0012.01
2023-01-25 03:09:00,,0824.8,4.98,0.00,22.4,22.1,00.0,31.0,24.3,10.7,-001.5,0018.76,0012.69,0011.98
2023-01-25 03:10:00,,0824.6,4.99,0.00,22.4,21.7,00.0,31.0,24.2,10.7,-001.5,0018.88,0012.66,0011.96
2023-01-25 03:11:00,,0824.9,4.99,0.00,22.3,21.2,00.0,31.0,24.1,10.7,-001.6,0019.11,0012.68,0011.94
2023-01-25 03:12:00,,0824.6,5.00,0.00,22.3,20.9,00.0,31.0,24.0,10.8,-001.6,0019.60,0012.62,0011.89
2023-01-25 03:13:00,,0824.8,4.99,0.00,22.2,20.5,00.0,31.0,23.9,10.9,-001.6,0019.70,0012.62,0011.87
2023-01-25 03:14:00,,0824.8,5.00,0.00,22.2,20.3,00.0,31.0,23.7,10.9,-001.7,0019.66,0012.59,0011.85
2023-01-25 03:15:00,,0824.7,5.01,0.00,22.1,20.1,00.0,31.0,23.6,10.9,-001.4,0020.09,0012.59,0011.83
2023-01-25 03:16:00,,0824.6,4.99,0.00,22.1,20.0,00.0,31.0,23.6,11.0,-001.4,0020.66,0012.63,0011.82
2023-01-25 03:17:00,,0824.6,5.00,0.00,22.0,20.0,00.0,31.0,23.6,11.0,-001.5,0020.63,0012.62,0011.82
2023-01-25 03:18:00,,0824.6,5.01,0.00,22.0,20.0,00.0,30.9,23.6,11.1,-001.7,0020.72,0012.65,0011.82
2023-01-25 03:19:00,,0824.5,5.00,0.00,22.0,20.0,00.0,30.9,23.6,11.1,-001.9,0020.71,0012.62,0011.77
2023-01-25 03:20:00,,0824.5,5.01,0.00,22.0,20.4,00.0,30.9,23.7,11.0,-002.1,0020.53,0012.66,0011.78
2023-01-25 03:21:00,,0824.5,5.00,0.00,22.1,21.6,00.0,30.9,23.9,10.7,-002.2,0020.32,0012.68,0011.81
2023-01-25 03:22:00,,0824.6,4.99,0.00,22.2,22.5,00.0,30.9,24.2,10.6,-002.2,0020.14,0012.70,0011.83
2023-01-25 03:23:00,,0824.6,4.99,0.00,22.3,22.6,00.0,30.9,24.3,10.5,-002.1,0020.08,0012.73,0011.85
2023-01-25 03:24:00,,0824.6,5.01,0.00,22.3,22.2,00.0,31.0,24.2,10.5,-002.0,0020.04,0012.73,0011.85
2023-01-25 03:25:00,,0824.7,5.00,0.00,22.3,21.7,00.0,31.0,24.1,10.4,-001.9,0019.85,0012.76,0011.87
2023-01-25 03:26:00,,0824.7,5.01,0.00,22.3,21.4,00.0,31.0,24.1,10.5,-002.1,0019.21,0012.76,0011.90
2023-01-25 03:27:00,,0824.6,5.01,0.00,22.3,21.1,00.0,31.0,24.0,10.6,-002.1,0018.99,0012.76,0011.94
2023-01-25 03:28:00,,0824.7,4.99,0.00,22.2,20.9,00.0,31.0,24.0,10.7,-002.1,0019.98,0012.81,0011.97
2023-01-25 03:29:00,,0824.8,4.98,0.00,22.2,20.8,00.0,31.0,23.9,10.8,-002.2,0020.09,0012.83,0012.01
2023-01-25 03:30:00,,0824.6,5.00,0.00,22.2,20.6,00.0,31.0,23.9,10.9,-002.1,0020.49,0012.90,0012.08
2023-01-25 03:31:00,,0824.6,5.00,0.00,22.2,20.6,00.0,31.0,23.9,10.9,-002.0,0020.33,0012.82,0012.03
2023-01-25 03:32:00,,0824.6,5.00,0.00,22.2,20.6,00.0,31.0,23.9,10.9,-002.0,0019.69,0012.68,0011.92
2023-01-25 03:33:00,,0824.7,5.00,0.00,22.2,20.6,00.0,30.9,23.9,10.9,-002.1,0019.47,0012.56,0011.81
2023-01-25 03:34:00,,0824.7,5.00,0.00,22.1,20.6,00.0,30.9,23.9,10.9,-002.2,0019.17,0012.47,0011.73
2023-01-25 03:35:00,,0824.7,5.00,0.00,22.1,20.6,00.0,30.9,23.9,10.8,-002.1,0019.08,0012.39,0011.66
2023-01-25 03:36:00,,0824.6,5.00,0.00,22.1,20.6,00.0,30.9,23.9,10.8,-002.1,0019.01,0012.28,0011.55
2023-01-25 03:37:00,,0824.6,5.01,0.00,22.1,20.6,00.0,30.9,23.8,10.8,-002.1,0019.26,0012.21,0011.49
2023-01-25 03:38:00,,0824.7,5.01,0.00,22.1,20.6,00.0,30.9,23.8,10.9,-001.9,0019.31,0012.19,0011.44
2023-01-25 03:39:00,,0824.8,5.00,0.00,22.1,21.2,00.0,30.9,23.9,10.9,-001.9,0018.58,0012.15,0011.38
2023-01-25 03:40:00,,0824.8,5.01,0.00,22.2,22.2,00.0,30.9,24.2,10.9,-001.7,0019.05,0012.09,0011.29
2023-01-25 03:41:00,,0824.8,5.00,0.00,22.3,22.8,00.0,31.0,24.4,10.8,-001.5,0019.02,0012.00,0011.20
2023-01-25 03:42:00,,0824.8,4.99,0.00,22.4,22.5,00.0,31.0,24.4,10.6,-001.4,0019.53,0012.01,0011.22
2023-01-25 03:43:00,,0824.8,5.01,0.00,22.4,22.1,00.0,31.0,24.3,10.7,-001.1,0020.24,0012.07,0011.27
2023-01-25 03:44:00,,0824.8,5.00,0.00,22.4,21.7,00.0,31.1,24.2,10.7,-000.8,0020.70,0012.16,0011.34
2023-01-25 03:45:00,,0824.8,5.00,0.00,22.4,21.5,00.0,31.1,24.2,10.7,-000.7,0020.56,0012.25,0011.40
2023-01-25 03:46:00,,0824.8,5.00,0.00,22.4,21.3,00.0,31.1,24.2,10.7,-000.9,0021.10,0012.36,0011.46
2023-01-25 03:47:00,,0824.8,5.01,0.00,22.4,21.1,00.0,31.1,24.2,10.7,-000.8,0021.93,0012.45,0011.53
2023-01-25 03:48:00,,0824.8,4.99,0.00,22.4,21.0,00.0,31.1,24.1,10.7,-000.8,0022.15,0012.52,0011.58
2023-01-25 03:49:00,,0824.8,4.99,0.00,22.4,20.8,00.0,31.1,24.1,10.7,-000.9,0022.02,0012.51,0011.59
2023-01-25 03:50:00,,0824.8,5.01,0.00,22.3,20.7,00.0,31.1,24.1,10.7,-000.9,0021.73,0012.46,0011.58
2023-01-25 03:51:00,,0824.8,5.00,0.00,22.3,20.6,00.0,31.1,24.0,10.8,-001.1,0021.41,0012.47,0011.61
2023-01-25 03:52:00,,0824.9,5.00,0.00,22.3,20.5,00.0,31.1,24.0,10.8,-001.3,0021.63,0012.51,0011.66
2023-01-25 03:53:00,,0824.8,5.01,0.00,22.3,20.4,00.0,31.1,23.9,10.8,-001.2,0021.27,0012.53,0011.70
2023-01-25 03:54:00,,0824.8,5.00,0.00,22.2,20.4,00.0,31.0,23.9,10.8,-001.2,0020.68,0012.53,0011.70
2023-01-25 03:55:00,,0824.8,5.00,0.00,22.2,20.4,00.0,31.0,23.9,10.9,-001.4,0020.41,0012.52,0011.68
2023-01-25 03:56:00,,0824.8,5.00,0.00,22.2,20.4,00.0,31.0,23.9,10.9,-001.5,0020.38,0012.48,0011.64
2023-01-25 03:57:00,,0824.8,5.00,0.00,22.2,20.5,00.0,31.0,23.8,10.9,-001.5,0019.87,0012.41,0011.60
2023-01-25 03:58:00,,0824.8,5.01,0.00,22.2,21.0,00.0,31.0,23.9,10.9,-001.5,0019.47,0012.39,0011.56
2023-01-25 03:59:00,,0824.8,5.01,0.00,22.3,22.0,00.0,31.0,24.2,10.8,-001.4,0019.24,0012.33,0011.49
